Clarksville, TX

2:15 AM CDT on April 23, 2017 (GMT -0500)
Clarksville

Weather History for KLBR - May, 2014

Change the Weather History Date:

Wednesday, May 7, 2014

  Actual Average (KPRX) Record (KPRX)
Temperature  
Mean Temperature 75 °F -  
Max Temperature 84 °F 77 °F 87 °F (2003)
Min Temperature 66 °F 58 °F 46 °F (1999)
Cooling Degree Days 10    
Growing Degree Days 25 (Base 50)    
Moisture  
Dew Point 61 °F    
Average Humidity 63    
Maximum Humidity 77    
Minimum Humidity 43    
Precipitation  
Precipitation 0.00 in - - ()
Sea Level Pressure  
Sea Level Pressure 29.85 in    
Wind  
Wind Speed 6 mph (SSE)    
Max Wind Speed 16 mph    
Max Gust Speed 24 mph    
Visibility 9 miles    
Events      
Averages and records for this station are not official NWS values.
T = Trace of Precipitation, MM = Missing Value Source: NWS Daily Summary

Daily Weather History Graph

Daily Weather History Graph

Search for Another Location

Airport or City:

Trip Planner

Search our weather history database for the weather conditions in past years. The results will help you decide how hot, cold, wet, or windy it might be!

Date:

Astronomy

May. 07, 2014 Rise Set
Actual Time 6:26 AM CDT 8:08 PM CDT
Civil Twilight 5:59 AM CDT 8:35 PM CDT
Nautical Twilight 5:26 AM CDT 9:07 PM CDT
Astronomical Twilight 4:52 AM CDT 9:41 PM CDT
Moon 1:33 PM CDT (5/7) 2:05 AM CDT (5/7)
Length of Visible Light 14h 35m
Length of Day
13h 41m
First Quarter, 55% of the Moon is Illuminated
May 7
First Quarter
May 14
Full
May 21
Last Quarter
May 28
New
Jun 5
First Quarter

Hourly Weather History & Observations

Time (CDT) Temp. Heat Index Dew Point Humidity Pressure Visibility Wind Dir Wind Speed Gust Speed Precip Events Conditions
12:15 AM 72.0 °F - 59.0 °F 64% 29.79 in 10.0 mi SSE 8.1 mph - N/A   Clear
12:35 AM 72.0 °F - 59.0 °F 64% 29.79 in 10.0 mi SSE 8.1 mph - N/A   Clear
12:55 AM 71.6 °F - 59.0 °F 64% 29.80 in 10.0 mi SSE 9.2 mph - N/A   Clear
1:15 AM 71.2 °F - 59.0 °F 65% 29.80 in 10.0 mi South 8.1 mph - N/A   Clear
1:35 AM 70.7 °F - 59.0 °F 66% 29.79 in 10.0 mi SSE 8.1 mph 18.4 mph N/A   Clear
1:55 AM 70.0 °F - 59.0 °F 68% 29.80 in 10.0 mi South 4.6 mph - N/A   Clear
2:15 AM 69.3 °F - 59.2 °F 70% 29.80 in 10.0 mi South 3.5 mph - N/A   Clear
2:35 AM 68.9 °F - 59.2 °F 71% 29.81 in 7.0 mi Calm Calm - N/A   Clear
2:55 AM 68.0 °F - 59.0 °F 73% 29.81 in 10.0 mi Calm Calm - N/A   Clear
3:15 AM 67.3 °F - 59.0 °F 75% 29.82 in 10.0 mi Calm Calm - N/A   Clear
3:35 AM 67.1 °F - 59.0 °F 75% 29.82 in 10.0 mi Calm Calm - N/A   Clear
3:55 AM 66.7 °F - 58.8 °F 76% 29.82 in 10.0 mi Calm Calm - N/A   Clear
4:15 AM 66.2 °F - 58.8 °F 77% 29.83 in 10.0 mi Calm Calm - N/A   Scattered Clouds
4:35 AM 66.2 °F - 58.6 °F 77% 29.84 in 10.0 mi Calm Calm - N/A   Overcast
4:55 AM 66.9 °F - 59.0 °F 76% 29.85 in 10.0 mi Calm Calm - N/A   Overcast
5:15 AM 67.5 °F - 59.0 °F 74% 29.84 in 10.0 mi Calm Calm - N/A   Mostly Cloudy
5:35 AM 67.5 °F - 59.0 °F 74% 29.84 in 10.0 mi Calm Calm - N/A   Mostly Cloudy
5:55 AM 68.0 °F - 59.0 °F 73% 29.84 in 10.0 mi SSE 9.2 mph - N/A   Mostly Cloudy
6:15 AM 68.0 °F - 59.0 °F 73% 29.85 in 10.0 mi SSE 9.2 mph - N/A   Mostly Cloudy
6:35 AM 67.6 °F - 59.2 °F 74% 29.85 in 10.0 mi SE 8.1 mph - N/A   Mostly Cloudy
6:55 AM 67.5 °F - 59.5 °F 76% 29.86 in 10.0 mi SSE 8.1 mph - N/A   Mostly Cloudy
7:15 AM 67.5 °F - 59.9 °F 77% 29.86 in 10.0 mi Calm Calm - N/A   Overcast
7:35 AM 67.6 °F - 60.1 °F 77% 29.88 in 10.0 mi SSE 10.4 mph - N/A   Overcast
7:55 AM 68.0 °F - 60.3 °F 76% 29.88 in 10.0 mi SSE 3.5 mph - N/A   Overcast
8:15 AM 68.4 °F - 60.8 °F 77% 29.88 in 10.0 mi SSE 6.9 mph - N/A   Overcast
8:35 AM 68.5 °F - 61.0 °F 77% 29.88 in 7.0 mi Calm Calm - N/A   Overcast
8:55 AM 68.9 °F - 61.2 °F 76% 29.88 in 10.0 mi Calm Calm - N/A   Overcast
9:15 AM 69.6 °F - 61.7 °F 76% 29.88 in 10.0 mi Calm Calm - N/A   Overcast
9:35 AM 70.7 °F - 62.1 °F 74% 29.89 in 10.0 mi Calm Calm - N/A   Overcast
9:55 AM 71.8 °F - 62.1 °F 71% 29.88 in 7.0 mi Calm Calm - N/A   Overcast
10:15 AM 72.0 °F - 62.2 °F 71% 29.89 in 7.0 mi SSE 8.1 mph - N/A   Overcast
10:35 AM 73.0 °F - 62.4 °F 69% 29.88 in 10.0 mi SSE 10.4 mph - N/A   Overcast
10:55 AM 73.9 °F - 62.4 °F 67% 29.89 in 10.0 mi SSE 10.4 mph - N/A   Mostly Cloudy
11:15 AM 74.8 °F - 62.2 °F 65% 29.89 in 10.0 mi SSE 13.8 mph - N/A   Mostly Cloudy
11:35 AM 76.8 °F - 62.4 °F 61% 29.89 in 7.0 mi SSE 10.4 mph 17.3 mph N/A   Mostly Cloudy
11:55 AM 77.5 °F - 62.6 °F 60% 29.89 in 7.0 mi SSE 11.5 mph 16.1 mph N/A   Mostly Cloudy
12:15 PM 79.2 °F - 62.8 °F 57% 29.89 in 10.0 mi SSE 11.5 mph 19.6 mph N/A   Scattered Clouds
12:35 PM 78.6 °F - 63.0 °F 59% 29.89 in 7.0 mi SE 11.5 mph 18.4 mph N/A   Scattered Clouds
12:55 PM 79.0 °F - 61.9 °F 56% 29.88 in 7.0 mi SSE 12.7 mph 19.6 mph N/A   Scattered Clouds
1:15 PM 80.1 °F 81.2 °F 62.2 °F 54% 29.88 in 10.0 mi SSE 16.1 mph 20.7 mph N/A   Clear
1:35 PM 80.6 °F 81.7 °F 62.1 °F 53% 29.88 in 10.0 mi SSE 11.5 mph 17.3 mph N/A   Scattered Clouds
1:55 PM 80.8 °F 81.8 °F 61.5 °F 52% 29.87 in 10.0 mi Calm Calm - N/A   Scattered Clouds
2:15 PM 82.4 °F 83.4 °F 62.6 °F 51% 29.87 in 5.0 mi SE 15.0 mph 19.6 mph N/A   Scattered Clouds
2:35 PM 82.6 °F 83.4 °F 62.1 °F 50% 29.86 in 10.0 mi SSE 12.7 mph 17.3 mph N/A   Scattered Clouds
2:55 PM 82.8 °F 83.1 °F 60.4 °F 47% 29.86 in 7.0 mi SSE 13.8 mph 24.2 mph N/A   Scattered Clouds
3:15 PM 84.4 °F 84.2 °F 59.7 °F 43% 29.86 in 7.0 mi SSE 10.4 mph - N/A   Clear
3:35 PM 83.3 °F 83.7 °F 61.0 °F 47% 29.86 in 5.0 mi SSE 10.4 mph 18.4 mph N/A   Clear
3:55 PM 81.5 °F 82.1 °F 60.8 °F 49% 29.86 in 5.0 mi Calm Calm - N/A   Clear
4:15 PM 81.7 °F 82.3 °F 61.0 °F 49% 29.85 in 3.0 mi SSE 9.2 mph - N/A   Clear
4:35 PM 81.5 °F 82.1 °F 60.8 °F 49% 29.85 in 5.0 mi SSE 10.4 mph 16.1 mph N/A   Clear
4:55 PM 80.8 °F 81.5 °F 60.4 °F 50% 29.84 in 10.0 mi SSE 8.1 mph - N/A   Clear
5:15 PM 81.1 °F 81.9 °F 60.8 °F 50% 29.84 in 7.0 mi SSE 9.2 mph - N/A   Clear
5:35 PM 80.6 °F 81.5 °F 61.2 °F 51% 29.84 in 7.0 mi SE 3.5 mph - N/A   Clear
5:55 PM 79.7 °F - 62.2 °F 55% 29.83 in 7.0 mi Calm Calm - N/A   Clear
6:15 PM 79.7 °F - 62.6 °F 56% 29.83 in 7.0 mi Calm Calm - N/A   Scattered Clouds
6:35 PM 79.5 °F - 62.4 °F 56% 29.82 in 7.0 mi Calm Calm - N/A   Clear
6:55 PM 79.7 °F - 60.6 °F 52% 29.82 in 7.0 mi SE 11.5 mph - N/A   Clear
7:15 PM 80.6 °F 81.2 °F 60.1 °F 49% 29.82 in 4.0 mi SSE 10.4 mph - N/A   Clear
7:35 PM 78.8 °F - 60.8 °F 54% 29.81 in 7.0 mi SE 9.2 mph - N/A   Clear
7:55 PM 77.4 °F - 61.7 °F 58% 29.81 in 7.0 mi Calm Calm - N/A   Clear
8:15 PM 76.1 °F - 62.1 °F 62% 29.81 in 7.0 mi Calm Calm - N/A   Clear
8:35 PM 75.4 °F - 62.6 °F 64% 29.82 in 10.0 mi Calm Calm - N/A   Clear
8:55 PM 75.4 °F - 61.5 °F 62% 29.82 in 7.0 mi SSE 13.8 mph - N/A   Clear
9:15 PM 76.3 °F - 59.7 °F 56% 29.82 in 7.0 mi SE 6.9 mph 17.3 mph N/A   Clear
9:35 PM 76.1 °F - 59.9 °F 57% 29.83 in 10.0 mi SE 8.1 mph - N/A   Clear
9:55 PM 75.4 °F - 59.9 °F 58% 29.82 in 10.0 mi SE 4.6 mph - N/A   Clear
10:15 PM 74.7 °F - 59.9 °F 60% 29.83 in 10.0 mi SE 6.9 mph - N/A   Clear
10:35 PM 74.3 °F - 60.3 °F 61% 29.83 in 10.0 mi SE 9.2 mph - N/A   Clear
10:55 PM 73.6 °F - 60.8 °F 64% 29.85 in 10.0 mi SE 8.1 mph - N/A   Clear
11:15 PM 73.0 °F - 61.0 °F 66% 29.86 in 10.0 mi Calm Calm - N/A   Clear
11:55 PM 72.5 °F - 61.7 °F 69% 29.87 in 10.0 mi Calm Calm - N/A   Clear